When you browse on this site, cookies collect data to enhance your experience and personalize the content and advertising you see.
Visit our Privacy Policy to learn more. By continuing to use the site, you agree to this use of cookies and data.
  • En España
  • Lista de países
  • Para 7 días
  • Temperatura del agua
  • El tiempo en el mapa
  • Informadores
  • user-avatar
    Iniciar sesión

    Tiempo cada hora Timiryazevo

    Hoy, 18 Agosto, Domingo

    Tiempo Temperatura Precipitaciones Viento Presión Humedad
    00:00 +16°C° 3.5 mm 5 mps 737 mmHg 97%
    01:00 +16°C° 0.9 mm 5 mps 737 mmHg 97%
    02:00 +16°C° 0.9 mm 5 mps 737 mmHg 96%
    03:00 +17°C° 0.9 mm 5 mps 737 mmHg 96%
    04:00 +16°C° 0.1 mm 5 mps 737 mmHg 96%
    05:00 +17°C° 0.1 mm 4 mps 737 mmHg 96%
    06:00 +17°C° 0.1 mm 4 mps 737 mmHg 96%
    07:00 +18°C° 0 mm 4 mps 737 mmHg 94%
    08:00 +18°C° 0 mm 4 mps 737 mmHg 93%
    09:00 +19°C° 0 mm 4 mps 737 mmHg 91%
    10:00 +19°C° 0 mm 4 mps 738 mmHg 88%
    11:00 +20°C° 0 mm 4 mps 738 mmHg 85%
    12:00 +20°C° 0 mm 4 mps 738 mmHg 83%
    13:00 +21°C° 0 mm 4 mps 738 mmHg 79%
    14:00 +22°C° 0 mm 3 mps 738 mmHg 76%
    15:00 +24°C° 0 mm 2 mps 739 mmHg 72%
    16:00 +23°C° 0.3 mm 2 mps 739 mmHg 75%
    17:00 +23°C° 0.3 mm 1 mps 739 mmHg 78%
    18:00 +23°C° 0.3 mm 1 mps 739 mmHg 81%
    19:00 +21°C° 0.5 mm 1 mps 739 mmHg 85%
    20:00 +19°C° 0.5 mm 2 mps 740 mmHg 89%
    21:00 +17°C° 0.5 mm 2 mps 740 mmHg 93%
    22:00 +17°C° 0 mm 2 mps 740 mmHg 94%
    23:00 +16°C° 0 mm 2 mps 740 mmHg 95%

    Mañana, 19 Agosto, Lunes

    Tiempo Temperatura Precipitaciones Viento Presión Humedad
    00:00 +15°C° 0 mm 2 mps 740 mmHg 96%
    01:00 +14°C° 0 mm 2 mps 741 mmHg 97%
    02:00 +14°C° 0 mm 2 mps 741 mmHg 97%
    03:00 +13°C° 0 mm 2 mps 741 mmHg 97%
    04:00 +13°C° 0 mm 3 mps 742 mmHg 97%
    05:00 +13°C° 0 mm 3 mps 742 mmHg 97%
    06:00 +14°C° 0 mm 3 mps 742 mmHg 96%
    07:00 +14°C° 0 mm 3 mps 743 mmHg 95%
    08:00 +15°C° 0 mm 4 mps 743 mmHg 93%
    09:00 +17°C° 0 mm 4 mps 743 mmHg 91%
    10:00 +17°C° 0 mm 4 mps 744 mmHg 88%
    11:00 +18°C° 0 mm 4 mps 744 mmHg 85%
    12:00 +19°C° 0 mm 4 mps 744 mmHg 83%
    13:00 +20°C° 0 mm 4 mps 745 mmHg 79%
    14:00 +21°C° 0 mm 3 mps 745 mmHg 75%
    15:00 +22°C° 0 mm 3 mps 745 mmHg 71%
    16:00 +22°C° 0 mm 3 mps 745 mmHg 73%
    17:00 +23°C° 0 mm 2 mps 745 mmHg 74%
    18:00 +23°C° 0 mm 2 mps 746 mmHg 76%
    19:00 +21°C° 0 mm 2 mps 746 mmHg 80%
    20:00 +19°C° 0 mm 2 mps 746 mmHg 85%
    21:00 +17°C° 0 mm 2 mps 746 mmHg 89%
    22:00 +17°C° 0 mm 2 mps 746 mmHg 90%
    23:00 +17°C° 0 mm 2 mps 746 mmHg 90%

    Pasado mañana, 20 Agosto, Martes

    Tiempo Temperatura Precipitaciones Viento Presión Humedad
    00:00 +16°C° 0 mm 2 mps 746 mmHg 91%
    01:00 +16°C° 0 mm 2 mps 747 mmHg 91%
    02:00 +16°C° 0 mm 2 mps 747 mmHg 91%
    03:00 +15°C° 0 mm 2 mps 747 mmHg 91%
    04:00 +15°C° 0 mm 2 mps 747 mmHg 91%
    05:00 +15°C° 0 mm 2 mps 747 mmHg 91%
    06:00 +15°C° 0 mm 2 mps 747 mmHg 91%
    07:00 +17°C° 0 mm 2 mps 748 mmHg 86%
    08:00 +19°C° 0 mm 2 mps 748 mmHg 82%
    09:00 +21°C° 0 mm 2 mps 748 mmHg 77%
    10:00 +22°C° 0 mm 3 mps 748 mmHg 74%
    11:00 +24°C° 0 mm 3 mps 748 mmHg 70%
    12:00 +26°C° 0 mm 3 mps 748 mmHg 67%
    13:00 +26°C° 0 mm 3 mps 748 mmHg 67%
    14:00 +26°C° 0 mm 3 mps 748 mmHg 67%
    15:00 +27°C° 0 mm 3 mps 748 mmHg 66%
    16:00 +26°C° 0 mm 3 mps 748 mmHg 70%
    17:00 +26°C° 0 mm 3 mps 748 mmHg 73%
    18:00 +26°C° 0 mm 2 mps 748 mmHg 76%
    19:00 +24°C° 0.1 mm 2 mps 748 mmHg 81%
    20:00 +23°C° 0.1 mm 2 mps 748 mmHg 85%
    21:00 +20°C° 0.1 mm 2 mps 748 mmHg 89%
    22:00 +20°C° 0.1 mm 2 mps 748 mmHg 90%
    23:00 +20°C° 0.1 mm 2 mps 748 mmHg 91%

    21 Agosto, Miércoles

    Tiempo Temperatura Precipitaciones Viento Presión Humedad
    00:00 +19°C° 0.1 mm 2 mps 748 mmHg 92%
    01:00 +19°C° 0 mm 2 mps 748 mmHg 93%
    02:00 +19°C° 0 mm 2 mps 748 mmHg 93%
    03:00 +19°C° 0 mm 2 mps 748 mmHg 94%
    04:00 +18°C° 0 mm 2 mps 749 mmHg 94%
    05:00 +18°C° 0 mm 2 mps 749 mmHg 95%
    06:00 +18°C° 0 mm 2 mps 749 mmHg 95%
    07:00 +21°C° 0 mm 1 mps 749 mmHg 91%
    08:00 +22°C° 0 mm 1 mps 749 mmHg 87%
    09:00 +24°C° 0 mm 1 mps 749 mmHg 83%
    10:00 +25°C° 0 mm 1 mps 749 mmHg 78%
    11:00 +26°C° 0 mm 1 mps 749 mmHg 73%
    12:00 +27°C° 0 mm 1 mps 749 mmHg 69%
    13:00 +27°C° 0 mm 1 mps 749 mmHg 67%
    14:00 +28°C° 0 mm 1 mps 749 mmHg 64%
    15:00 +28°C° 0 mm 1 mps 749 mmHg 62%
    16:00 +28°C° 0 mm 1 mps 748 mmHg 66%
    17:00 +26°C° 0 mm 0 mps 748 mmHg 69%
    18:00 +25°C° 0 mm 0 mps 748 mmHg 73%
    19:00 +26°C° 0.1 mm 1 mps 748 mmHg 76%
    20:00 +24°C° 0.1 mm 1 mps 747 mmHg 80%
    21:00 +23°C° 0.1 mm 2 mps 747 mmHg 83%
    22:00 +21°C° 0.4 mm 2 mps 747 mmHg 85%
    23:00 +21°C° 0.4 mm 2 mps 747 mmHg 87%

    22 Agosto, Jueves

    Tiempo Temperatura Precipitaciones Viento Presión Humedad
    00:00 +20°C° 0.4 mm 3 mps 747 mmHg 89%
    01:00 +20°C° 0.7 mm 3 mps 747 mmHg 90%
    02:00 +20°C° 0.7 mm 3 mps 746 mmHg 91%
    03:00 +19°C° 0.7 mm 3 mps 746 mmHg 92%
    04:00 +19°C° 0.2 mm 3 mps 746 mmHg 92%
    05:00 +19°C° 0.2 mm 3 mps 746 mmHg 92%
    06:00 +19°C° 0.2 mm 3 mps 745 mmHg 93%
    07:00 +20°C° 0 mm 3 mps 745 mmHg 89%
    08:00 +22°C° 0 mm 4 mps 745 mmHg 84%
    09:00 +23°C° 0 mm 4 mps 745 mmHg 80%
    10:00 +25°C° 0 mm 4 mps 745 mmHg 76%
    11:00 +26°C° 0 mm 4 mps 746 mmHg 71%
    12:00 +27°C° 0 mm 4 mps 746 mmHg 67%
    13:00 +26°C° 0.3 mm 5 mps 746 mmHg 71%
    14:00 +25°C° 0.3 mm 5 mps 746 mmHg 75%
    15:00 +23°C° 0.3 mm 5 mps 746 mmHg 79%
    16:00 +22°C° 0.1 mm 5 mps 746 mmHg 80%
    17:00 +21°C° 0.1 mm 4 mps 746 mmHg 80%
    18:00 +20°C° 0.1 mm 4 mps 746 mmHg 81%
    19:00 +19°C° 0 mm 3 mps 746 mmHg 81%
    20:00 +19°C° 0 mm 3 mps 747 mmHg 81%
    21:00 +18°C° 0 mm 3 mps 747 mmHg 81%
    22:00 +18°C° 0 mm 3 mps 747 mmHg 79%
    23:00 +17°C° 0 mm 3 mps 748 mmHg 78%

    23 Agosto, Viernes

    Tiempo Temperatura Precipitaciones Viento Presión Humedad
    00:00 +17°C° 0 mm 3 mps 748 mmHg 76%
    01:00 +17°C° 0 mm 2 mps 748 mmHg 77%
    02:00 +16°C° 0 mm 2 mps 748 mmHg 79%
    03:00 +16°C° 0 mm 1 mps 748 mmHg 81%
    04:00 +16°C° 0 mm 1 mps 748 mmHg 84%
    05:00 +15°C° 0 mm 2 mps 748 mmHg 87%
    06:00 +14°C° 0 mm 2 mps 748 mmHg 90%
    07:00 +15°C° 0 mm 2 mps 748 mmHg 86%
    08:00 +17°C° 0 mm 2 mps 749 mmHg 82%
    09:00 +18°C° 0 mm 2 mps 749 mmHg 78%
    10:00 +19°C° 0 mm 2 mps 749 mmHg 73%
    11:00 +20°C° 0 mm 2 mps 749 mmHg 68%
    12:00 +21°C° 0 mm 2 mps 749 mmHg 62%
    13:00 +21°C° 0 mm 2 mps 748 mmHg 60%
    14:00 +21°C° 0 mm 2 mps 748 mmHg 58%
    15:00 +23°C° 0 mm 2 mps 748 mmHg 56%
    16:00 +21°C° 0 mm 2 mps 748 mmHg 60%
    17:00 +22°C° 0 mm 1 mps 748 mmHg 64%
    18:00 +21°C° 0 mm 1 mps 747 mmHg 68%
    19:00 +20°C° 0 mm 1 mps 747 mmHg 70%
    20:00 +17°C° 0 mm 2 mps 747 mmHg 73%
    21:00 +16°C° 0 mm 2 mps 747 mmHg 75%
    22:00 +15°C° 0 mm 2 mps 747 mmHg 76%
    23:00 +15°C° 0 mm 2 mps 747 mmHg 76%
    Mostrar más